Regional Weather Roundup
Issued by NWS

Home | Current Version | Previous Version | Text Only | Print | Product List | Glossary On
Versions: 1 2 3 4 5 6 7 8 9 10 11 12 13 14 15 16 17 18 19 20 21 22 23 24 25 26 27 28 29 30 31 32 33 34 35 36 37 38 39 40 41 42 43 44 45 46 47 48 49 50
000
ASUS43 KTOP 291308
RWRKS

WEATHER ROUNDUP FOR KANSAS
NATIONAL WEATHER SERVICE GOODLAND KS
800 AM CDT SAT AUG 29 2015

NOTE:  "FAIR" INDICATES FEW OR NO CLOUDS BELOW 12,000 FEET WITH NO
SIGNIFICANT WEATHER AND/OR OBSTRUCTIONS TO VISIBILITY.

KSZ001>006-013>018-027>032-041>047-291400-
NORTHWEST KANSAS

CITY           SKY/WX    TMP DP  RH WIND       PRES   REMARKS
GOODLAND       CLEAR     58  54  86 W6        30.19R
HAYS           SUNNY     61  54  77 NW7       30.10R
HILL CITY      CLEAR     58  57  97 W7        30.13R
RUSSELL        SUNNY     61  59  93 NW10      30.08R
$$

KSZ061>065-074>080-084>089-291400-
SOUTHWEST KANSAS

CITY           SKY/WX    TMP DP  RH WIND       PRES   REMARKS
DODGE CITY     CLEAR     58  57  97 NW6       30.11R FOG
ELKHART          N/A     62  56  81 N5          N/A
GARDEN CITY    CLEAR     58  56  93 NW5       30.13R
GREAT BEND     SUNNY     61  55  82 NW7       30.08R
LIBERAL        CLEAR     63  55  77 N6        30.14R
PRATT          SUNNY     61  59  94 CALM      30.09R
$$

KSZ066>073-081>083-090>101-291400-
SOUTHEAST KANSAS

CITY           SKY/WX    TMP DP  RH WIND       PRES   REMARKS
CHANUTE        CLOUDY    70  66  87 N7        30.00R
COFFEYVILLE    PTSUNNY   69  67  93 S3        29.99R
HUTCHINSON     SUNNY     66  61  84 N10       30.05R
MEDICINE LODGE   N/A     65  63  93 N5        30.05R
NEWTON         SUNNY     64  57  77 N10       30.05R
PARSONS        CLOUDY    68  68 100 E3        30.00R FOG
WICHITA INTL   MOSUNNY   68  63  84 N10       30.02R
WICHITA JABRA  SUNNY     66  64  93 NW7       30.02R
WICHITA MCCONL SUNNY     67  63  86 N7        30.02R
$$

KSZ007>012-019>026-033>040-048>060-102>105-291400-
NORTHEAST KANSAS

CITY           SKY/WX    TMP DP  RH WIND       PRES   REMARKS
CONCORDIA      CLOUDY    60  58  92 NW9       30.08R
EMPORIA        CLOUDY    64  63  96 CALM      30.02R
LAWRENCE       PTSUNNY   67  64  90 N8        30.00R
MANHATTAN      CLOUDY    66  62  87 N6        30.03R
MARYSVILLE     CLOUDY   N/A N/A N/A N12       30.04R
OLATHE IND     CLOUDY    67  65  93 NW9       30.01R
OLATHE EXE     CLOUDY    68  66  93 NW9       29.99R
SALINA         CLOUDY    66  62  87 N13       30.05R
TOPEKA BILLARD CLOUDY    64  63  96 CALM      30.01R
TOPEKA FORBES  PTSUNNY   64  61  90 NW9       30.01R
$$



USA.gov is the U.S. government's official web portal to all federal, state and local government web resources and services.